User: anonymous   Login
Location: Vancouver
(49.2500°N, 123.1330°W)
Time: 08:41:29
(UTC-07:00)
Language:

JAS-1B - Orbit

View from above orbital plane
View from above orbital plane
View from above satellite
View from above satellite

Ground track
Ground track

The orbit data is extracted from the following two-line orbital elements,

1 20480U 90013C   14304.08011814 -.00000009  00000-0  47016-4 0  8881
2 20480 099.0636 241.7536 0540755 046.1077 016.5689 12.83398260158560
Epoch (UTC): 31 October 2014 01:55:22
Eccentricity: 0.0540755
inclination: 99.0636°
perigee height: 911 km
apogee height: 1744 km
right ascension of ascending node: 241.7536°
argument of perigee: 46.1077°
revolutions per day: 12.83398260
mean anomaly at epoch: 16.5689°
orbit number at epoch: 15856

The dashed part of the orbit path shows where the satellite is in the earth's shadow,  

DLR